Weather History for KFLY - August, 2013

Change the Weather History Date:

Friday, August 9, 2013

  Actual Average (KCOS) Record (KCOS)
Temperature  
Mean Temperature 60 °F 70 °F  
Max Temperature 70 °F 82 °F 95 °F (1962)
Min Temperature 51 °F 57 °F 44 °F (1912)
Degree Days  
Heating Degree Days 4 0  
Month to date heating degree days 0  
Since 1 June heating degree days 89  
Since 1 July heating degree days 10  
Cooling Degree Days 0 5  
Month to date cooling degree days 48  
Year to date cooling degree days 332  
Since 1 June cooling degree days 322  
Growing Degree Days 10 (Base 50)    
Moisture  
Dew Point 51 °F    
Average Humidity 78    
Maximum Humidity 99    
Minimum Humidity 49    
Precipitation  
Precipitation 0.00 in 0.13 in 1.33 in (1924)
Month to date precipitation 1.10  
Year to date precipitation 11.55  
Snow  
Snow 0.00 in 0.00 in 0.00 in (2002)
Month to date snowfall 0.0  
Since 1 June snowfall 0.0  
Since 1 July snowfall 0.0  
Snow Depth -    
Sea Level Pressure  
Sea Level Pressure 30.35 in    
Wind  
Wind Speed 6 mph (SSW)    
Max Wind Speed 26 mph    
Max Gust Speed 34 mph    
Visibility 9 miles    
Events Rain , Thunderstorm    
T = Trace of Precipitation, MM = Missing Value Source: NWS Daily Summary

Daily Weather History Graph

Daily Weather History Graph

Search for Another Location

Airport or City:

Trip Planner

Search our weather history database for the weather conditions in past years. The results will help you decide how hot, cold, wet, or windy it might be!

Date:

Astronomy

Aug. 09, 2013 Rise Set
Actual Time 6:06 AM MDT 8:00 PM MDT
Civil Twilight 5:37 AM MDT 8:29 PM MDT
Nautical Twilight 5:02 AM MDT 9:04 PM MDT
Astronomical Twilight 4:24 AM MDT 9:41 PM MDT
Moon 8:53 AM MDT (8/9) 9:13 PM MDT (8/9)
Length of Visible Light 14h 51m
Length of Day
13h 53m
Waxing Crescent, 8% of the Moon is Illuminated
Aug 9
Waxing Crescent
Aug 14
First Quarter
Aug 20
Full
Aug 28
Last Quarter
Sep 5
New

Hourly Weather History & Observations

Time (MDT) Temp. Dew Point Humidity Pressure Visibility Wind Dir Wind Speed Gust Speed Precip Events Conditions
12:09 AM 54.5 °F 50.4 °F 86% 30.32 in 10.0 mi ENE 4.6 mph - N/A   Scattered Clouds
12:29 AM 54.0 °F 50.7 °F 89% 30.32 in 10.0 mi East 5.8 mph - N/A   Scattered Clouds
12:49 AM 53.6 °F 50.5 °F 89% 30.32 in 10.0 mi East 5.8 mph - N/A   Scattered Clouds
1:09 AM 53.1 °F 51.3 °F 94% 30.32 in 10.0 mi ENE 4.6 mph - N/A   Scattered Clouds
1:29 AM 54.3 °F 53.6 °F 97% 30.32 in 3.0 mi ENE 4.6 mph - N/A   Overcast
1:49 AM 54.0 °F 53.6 °F 99% 30.32 in 7.0 mi ENE 3.5 mph - N/A   Mostly Cloudy
2:09 AM 54.1 °F 53.2 °F 97% 30.32 in 10.0 mi Calm Calm - N/A   Mostly Cloudy
2:29 AM 53.1 °F 52.2 °F 97% 30.31 in 7.0 mi West 3.5 mph - N/A   Scattered Clouds
2:48 AM 52.7 °F 51.8 °F 97% 30.31 in 10.0 mi West 3.5 mph - N/A   Clear
3:08 AM 52.3 °F 51.4 °F 97% 30.31 in 10.0 mi Calm Calm - N/A   Clear
3:28 AM 52.2 °F 51.1 °F 96% 30.31 in 10.0 mi WNW 6.9 mph - N/A   Clear
3:48 AM 52.5 °F 51.6 °F 97% 30.31 in 10.0 mi West 5.8 mph - N/A   Clear
4:08 AM 52.7 °F 51.8 °F 97% 30.30 in 10.0 mi West 6.9 mph - N/A   Clear
4:28 AM 52.7 °F 51.6 °F 96% 30.30 in 10.0 mi WNW 6.9 mph - N/A   Clear
4:48 AM 52.3 °F 51.4 °F 97% 30.30 in 7.0 mi WSW 4.6 mph - N/A   Mostly Cloudy
5:08 AM 53.2 °F 52.7 °F 98% 30.30 in 1.5 mi West 6.9 mph - N/A   Overcast
5:28 AM 52.9 °F 52.3 °F 98% 30.30 in 5.0 mi WNW 5.8 mph - N/A   Mostly Cloudy
5:48 AM 52.7 °F 52.2 °F 98% 30.31 in 5.0 mi South 4.6 mph - N/A   Overcast
6:08 AM 53.1 °F 52.0 °F 96% 30.31 in 7.0 mi WNW 3.5 mph - N/A   Overcast
6:28 AM 53.1 °F 51.8 °F 95% 30.32 in 7.0 mi Calm Calm - N/A   Overcast
6:48 AM 52.7 °F 51.4 °F 95% 30.32 in 7.0 mi WNW 3.5 mph - N/A   Overcast
7:08 AM 53.1 °F 51.8 °F 95% 30.32 in 7.0 mi WNW 3.5 mph - N/A   Scattered Clouds
7:28 AM 54.9 °F 52.3 °F 91% 30.34 in 7.0 mi Calm Calm - N/A   Clear
7:48 AM 55.4 °F 52.3 °F 89% 30.34 in 7.0 mi Calm Calm - N/A   Clear
8:08 AM 57.4 °F 53.1 °F 85% 30.35 in 10.0 mi SSW 3.5 mph - N/A   Clear
8:28 AM 59.0 °F 53.1 °F 81% 30.36 in 10.0 mi West 3.5 mph - N/A   Clear
8:48 AM 60.1 °F 51.8 °F 74% 30.36 in 10.0 mi West 4.6 mph - N/A   Clear
9:08 AM 62.1 °F 50.7 °F 66% 30.36 in 10.0 mi West 4.6 mph - N/A   Clear
9:28 AM 62.6 °F 51.4 °F 67% 30.35 in 10.0 mi West 4.6 mph - N/A   Clear
9:48 AM 63.7 °F 49.8 °F 61% 30.35 in 10.0 mi ESE 3.5 mph - N/A   Clear
10:08 AM 64.8 °F 49.3 °F 57% 30.36 in 10.0 mi SSE 4.6 mph - N/A   Clear
10:28 AM 65.1 °F 52.3 °F 63% 30.36 in 10.0 mi South 8.1 mph - N/A   Clear
10:48 AM 65.3 °F 52.0 °F 62% 30.36 in 10.0 mi South 4.6 mph - N/A   Clear
11:08 AM 66.4 °F 51.8 °F 59% 30.36 in 10.0 mi South 5.8 mph - N/A   Scattered Clouds
11:28 AM 67.1 °F 49.5 °F 53% 30.36 in 10.0 mi SSE 6.9 mph - N/A   Scattered Clouds
11:48 AM 67.5 °F 51.4 °F 56% 30.36 in 10.0 mi South 4.6 mph - N/A   Scattered Clouds
12:08 PM 67.3 °F 51.3 °F 56% 30.36 in 10.0 mi SSE 9.2 mph 17.3 mph N/A   Scattered Clouds
12:28 PM 67.6 °F 50.7 °F 55% 30.36 in 10.0 mi SSE 5.8 mph - N/A   Scattered Clouds
12:48 PM 68.4 °F 51.1 °F 54% 30.36 in 10.0 mi SE 9.2 mph - N/A   Scattered Clouds
1:08 PM 68.4 °F 49.6 °F 51% 30.35 in 10.0 mi SE 6.9 mph - N/A Thunderstorm Thunderstorm
1:28 PM 68.5 °F 48.9 °F 49% 30.35 in 10.0 mi SE 9.2 mph - N/A Thunderstorm Scattered Clouds
1:48 PM 65.1 °F 48.4 °F 55% 30.36 in 10.0 mi SSE 12.7 mph - N/A   Scattered Clouds
2:08 PM 64.4 °F 48.6 °F 56% 30.36 in 10.0 mi SSE 9.2 mph - N/A Thunderstorm Clear
2:28 PM 63.7 °F 50.5 °F 62% 30.36 in 10.0 mi SSE 11.5 mph - N/A Thunderstorm Clear
2:48 PM 63.5 °F 50.2 °F 62% 30.35 in 10.0 mi SSE 10.4 mph - N/A   Clear
3:08 PM 64.4 °F 48.7 °F 57% 30.34 in 10.0 mi SSE 10.4 mph - N/A   Scattered Clouds
3:28 PM 65.8 °F 50.0 °F 57% 30.34 in 10.0 mi SSE 11.5 mph - N/A   Scattered Clouds
3:48 PM 70.0 °F 49.8 °F 49% 30.34 in 10.0 mi SSE 13.8 mph 17.3 mph N/A   Scattered Clouds
4:08 PM 67.1 °F 48.4 °F 51% 30.33 in 10.0 mi South 13.8 mph 18.4 mph N/A   Scattered Clouds
4:28 PM 65.7 °F 48.6 °F 54% 30.34 in 10.0 mi SSE 9.2 mph - N/A   Mostly Cloudy
4:48 PM 65.5 °F 48.2 °F 54% 30.34 in 10.0 mi SSE 9.2 mph - N/A   Mostly Cloudy
5:08 PM 64.8 °F 49.6 °F 58% 30.35 in 10.0 mi SSE 9.2 mph - N/A   Mostly Cloudy
5:28 PM 64.4 °F 49.6 °F 59% 30.36 in 10.0 mi SE 9.2 mph - N/A Thunderstorm Overcast
5:48 PM 63.5 °F 49.8 °F 61% 30.36 in 10.0 mi East 3.5 mph - N/A Rain , Thunderstorm Light Thunderstorms and Rain
6:08 PM 62.8 °F 51.4 °F 66% 30.37 in 10.0 mi Calm Calm - N/A Rain , Thunderstorm Thunderstorms and Rain
6:28 PM 54.1 °F 48.4 °F 81% 30.39 in 2.5 mi West 26.5 mph 34.5 mph N/A Rain , Thunderstorm Heavy Thunderstorms and Rain
6:48 PM 51.4 °F 49.1 °F 92% 30.39 in 3.0 mi South 10.4 mph - N/A Rain , Thunderstorm Heavy Thunderstorms and Rain
7:08 PM 52.2 °F 49.5 °F 91% 30.40 in 7.0 mi SSE 12.7 mph - N/A Rain , Thunderstorm Light Thunderstorms and Rain
7:28 PM 53.2 °F 49.8 °F 88% 30.42 in 7.0 mi SSW 8.1 mph - N/A Rain Light Rain
7:48 PM 52.7 °F 50.0 °F 91% 30.40 in 7.0 mi South 11.5 mph - N/A Rain Rain
8:08 PM 53.2 °F 49.5 °F 87% 30.37 in 7.0 mi ESE 16.1 mph 21.9 mph N/A Rain Light Rain
8:28 PM 53.8 °F 49.5 °F 85% 30.36 in 10.0 mi SE 12.7 mph 20.7 mph N/A   Overcast
8:48 PM 53.8 °F 50.2 °F 88% 30.38 in 10.0 mi West 12.7 mph - N/A Thunderstorm Mostly Cloudy
9:08 PM 54.5 °F 50.0 °F 85% 30.37 in 10.0 mi West 5.8 mph - N/A   Scattered Clouds
9:28 PM 53.8 °F 50.4 °F 88% 30.38 in 10.0 mi West 10.4 mph - N/A   Clear
9:48 PM 53.4 °F 50.2 °F 89% 30.39 in 10.0 mi West 6.9 mph - N/A   Clear
10:08 PM 52.9 °F 49.8 °F 89% 30.38 in 10.0 mi West 8.1 mph - N/A   Clear
10:28 PM 52.3 °F 49.6 °F 91% 30.39 in 10.0 mi West 9.2 mph - N/A   Clear
10:48 PM 52.9 °F 49.1 °F 87% 30.39 in 10.0 mi WSW 6.9 mph 17.3 mph N/A   Clear
11:08 PM 52.7 °F 48.9 °F 87% 30.39 in 10.0 mi West 5.8 mph - N/A   Clear
11:28 PM 52.0 °F 48.4 °F 88% 30.39 in 10.0 mi SSW 5.8 mph - N/A   Clear
11:48 PM 52.2 °F 49.1 °F 89% 30.39 in 10.0 mi SSW 8.1 mph - N/A   Clear